Weather History for Holdrege, NE

Change the Weather History Date:

Tuesday, April 23, 2013

  Actual Average Record
Temperature  
Mean Temperature 34 °F -  
Max Temperature 40 °F 67 °F 95 °F (1989)
Min Temperature 28 °F 38 °F 27 °F (1967)
Degree Days  
Heating Degree Days 32    
Moisture  
Dew Point 22 °F    
Average Humidity 66    
Maximum Humidity 83    
Minimum Humidity 42    
Precipitation  
Precipitation 0.00 in - - ()
Sea Level Pressure  
Sea Level Pressure 30.22 in    
Wind  
Wind Speed 18 mph (North)    
Max Wind Speed 23 mph    
Max Gust Speed 33 mph    
Visibility 10 miles    
Events Snow    
Averages and records for this station are not official NWS values.
T = Trace of Precipitation, MM = Missing Value Source: NWS Daily Summary

Daily Weather History Graph

Daily Weather History Graph

Search for Another Location

Airport:

Trip Planner

Search our weather history database for the weather conditions in past years. The results will help you decide how hot, cold, wet, or windy it might be!

Date:

Astronomy

Apr. 23, 2013 Rise Set
Actual Time 6:46 AM CDT 8:25 PM CDT
Civil Twilight 6:17 AM CDT 8:53 PM CDT
Nautical Twilight 5:43 AM CDT 9:29 PM CDT
Astronomical Twilight 5:05 AM CDT 10:06 PM CDT
Moon 6:21 PM CDT 5:16 AM CDT
Length of Visible Light 14h 36m
Length of Day
13h 38m
Waxing Gibbous, 94% of the Moon is Illuminated
Apr 23
Waxing Gibbous
Apr 25
Full
May 2
Last Quarter
May 9
New
May 17
First Quarter

Hourly Weather History & Observations

Time (CDT) Temp. Windchill Dew Point Humidity Pressure Visibility Wind Dir Wind Speed Gust Speed Precip Events Conditions
12:15 AM 31.6 °F 19.0 °F 25.9 °F 79% 30.29 in 10.0 mi North 21.9 mph 28.8 mph N/A   Overcast
12:35 AM 31.5 °F 18.8 °F 25.9 °F 80% 30.25 in 10.0 mi North 21.9 mph 31.1 mph N/A   Overcast
12:55 AM 31.3 °F 18.9 °F 26.1 °F 81% 30.27 in 10.0 mi North 20.7 mph 33.4 mph N/A   Overcast
1:15 AM 31.5 °F 18.5 °F 26.1 °F 80% 30.27 in 10.0 mi North 23.0 mph 28.8 mph N/A   Overcast
1:35 AM 31.5 °F 19.1 °F 26.1 °F 80% 30.27 in 10.0 mi North 20.7 mph - N/A   Overcast
1:55 AM 31.1 °F 18.6 °F 25.7 °F 80% 30.27 in 10.0 mi North 20.7 mph 28.8 mph N/A   Overcast
2:15 AM 31.1 °F 18.9 °F 25.2 °F 79% 30.28 in 10.0 mi North 19.6 mph 28.8 mph N/A   Overcast
2:55 AM 30.9 °F 18.1 °F 25.3 °F 80% 30.26 in 10.0 mi North 21.9 mph 27.6 mph N/A   Overcast
3:15 AM 30.9 °F 19.4 °F 25.3 °F 80% 30.27 in 10.0 mi North 17.3 mph 24.2 mph N/A   Overcast
3:35 AM 30.6 °F 18.2 °F 24.8 °F 79% 30.24 in 10.0 mi North 19.6 mph - N/A   Overcast
3:55 AM 30.2 °F 16.8 °F 25.0 °F 81% 30.23 in 7.0 mi North 23.0 mph 27.6 mph N/A   Overcast
4:15 AM 30.2 °F 16.8 °F 24.8 °F 80% 30.23 in 5.0 mi North 23.0 mph 28.8 mph N/A Snow Light Snow
4:35 AM 30.0 °F 17.2 °F 24.8 °F 81% 30.22 in 7.0 mi North 20.7 mph 28.8 mph N/A Snow Light Snow
4:55 AM 30.0 °F 18.3 °F 24.3 °F 79% 30.26 in 10.0 mi North 17.3 mph 25.3 mph N/A   Overcast
5:15 AM 30.0 °F 16.9 °F 23.4 °F 76% 30.25 in 10.0 mi North 21.9 mph 25.3 mph N/A   Overcast
5:35 AM 29.8 °F 17.3 °F 23.2 °F 76% 30.26 in 10.0 mi North 19.6 mph 23.0 mph N/A   Overcast
5:55 AM 29.5 °F 16.8 °F 22.8 °F 76% 30.25 in 10.0 mi North 19.6 mph - N/A   Overcast
6:15 AM 29.3 °F 17.0 °F 22.1 °F 75% 30.23 in 10.0 mi North 18.4 mph 24.2 mph N/A   Overcast
6:35 AM 28.9 °F 16.1 °F 21.6 °F 74% 30.23 in 10.0 mi North 19.6 mph 26.5 mph N/A   Mostly Cloudy
6:55 AM 28.8 °F 16.2 °F 21.7 °F 75% 30.23 in 10.0 mi North 18.4 mph 26.5 mph N/A   Overcast
7:15 AM 28.8 °F 14.9 °F 21.2 °F 73% 30.22 in 10.0 mi North 23.0 mph 28.8 mph N/A   Overcast
7:35 AM 28.4 °F 15.8 °F 21.2 °F 74% 30.23 in 10.0 mi North 18.4 mph 26.5 mph N/A   Mostly Cloudy
7:55 AM 28.4 °F 15.4 °F 21.0 °F 74% 30.25 in 10.0 mi North 19.6 mph 27.6 mph N/A   Scattered Clouds
8:15 AM 28.8 °F 15.9 °F 20.5 °F 71% 30.26 in 10.0 mi North 19.6 mph 25.3 mph N/A   Clear
8:35 AM 29.3 °F 17.0 °F 20.7 °F 70% 30.25 in 10.0 mi North 18.4 mph 26.5 mph N/A   Clear
8:55 AM 29.3 °F 16.2 °F 19.8 °F 68% 30.25 in 10.0 mi North 20.7 mph 26.5 mph N/A   Scattered Clouds
9:15 AM 28.9 °F 15.4 °F 19.0 °F 67% 30.25 in 10.0 mi North 21.9 mph 27.6 mph N/A   Mostly Cloudy
9:35 AM 29.8 °F 16.3 °F 19.6 °F 66% 30.25 in 10.0 mi North 23.0 mph 27.6 mph N/A   Overcast
9:55 AM 30.2 °F 17.8 °F 19.6 °F 65% 30.25 in 10.0 mi North 19.6 mph 28.8 mph N/A   Mostly Cloudy
10:15 AM 30.0 °F 17.5 °F 18.7 °F 63% 30.26 in 10.0 mi North 19.6 mph 25.3 mph N/A   Overcast
10:35 AM 30.7 °F 17.5 °F 18.9 °F 61% 30.25 in 10.0 mi North 23.0 mph 27.6 mph N/A   Overcast
10:55 AM 31.5 °F 18.8 °F 19.2 °F 61% 30.26 in 10.0 mi North 21.9 mph 25.3 mph N/A   Overcast
11:15 AM 31.1 °F 19.3 °F 18.7 °F 60% 30.25 in 10.0 mi North 18.4 mph 27.6 mph N/A   Mostly Cloudy
11:35 AM 31.8 °F 20.2 °F 19.2 °F 60% 30.24 in 10.0 mi North 18.4 mph 26.5 mph N/A   Overcast
11:55 AM 32.2 °F 20.4 °F 19.6 °F 60% 30.25 in 10.0 mi North 19.6 mph 25.3 mph N/A   Overcast
12:15 PM 32.4 °F 21.3 °F 19.6 °F 59% 30.25 in 10.0 mi North 17.3 mph 26.5 mph N/A   Mostly Cloudy
12:35 PM 32.4 °F 20.9 °F 19.6 °F 59% 30.24 in 10.0 mi North 18.4 mph 23.0 mph N/A   Mostly Cloudy
12:55 PM 32.9 °F 21.6 °F 19.4 °F 58% 30.23 in 10.0 mi North 18.4 mph 24.2 mph N/A   Overcast
1:15 PM 34.0 °F 23.0 °F 18.7 °F 54% 30.23 in 10.0 mi North 18.4 mph 25.3 mph N/A   Overcast
1:35 PM 34.3 °F 24.6 °F 19.9 °F 56% 30.22 in 10.0 mi North 15.0 mph 24.2 mph N/A   Overcast
1:55 PM 34.2 °F 25.2 °F 18.5 °F 53% 30.22 in 10.0 mi North 12.7 mph 17.3 mph N/A   Overcast
2:15 PM 35.1 °F 25.5 °F 19.8 °F 54% 30.21 in 10.0 mi North 15.0 mph - N/A   Mostly Cloudy
2:35 PM 34.9 °F 26.6 °F 18.0 °F 50% 30.21 in 10.0 mi North 11.5 mph - N/A   Overcast
2:55 PM 35.8 °F 27.8 °F 19.9 °F 53% 30.21 in 10.0 mi NNW 11.5 mph 16.1 mph N/A   Overcast
3:15 PM 36.1 °F 26.5 °F 19.8 °F 51% 30.21 in 10.0 mi North 16.1 mph 20.7 mph N/A   Mostly Cloudy
3:35 PM 36.5 °F 28.7 °F 19.0 °F 49% 30.20 in 10.0 mi NNW 11.5 mph 17.3 mph N/A   Mostly Cloudy
3:55 PM 37.4 °F 29.3 °F 20.1 °F 50% 30.19 in 10.0 mi North 12.7 mph 17.3 mph N/A   Mostly Cloudy
4:15 PM 37.6 °F 30.5 °F 19.2 °F 48% 30.18 in 10.0 mi North 10.4 mph 16.1 mph N/A   Scattered Clouds
4:35 PM 38.1 °F 31.2 °F 17.8 °F 44% 30.18 in 10.0 mi North 10.4 mph 17.3 mph N/A   Scattered Clouds
4:55 PM 38.3 °F 31.4 °F 19.2 °F 46% 30.17 in 10.0 mi NNE 10.4 mph - N/A   Mostly Cloudy
5:15 PM 39.7 °F 33.2 °F 21.9 °F 49% 30.17 in 10.0 mi North 10.4 mph 17.3 mph N/A   Mostly Cloudy
5:35 PM 39.9 °F 33.4 °F 20.7 °F 46% 30.17 in 10.0 mi North 10.4 mph 16.1 mph N/A   Scattered Clouds
5:55 PM 39.6 °F 33.5 °F 18.0 °F 42% 30.17 in 10.0 mi NNW 9.2 mph 18.4 mph N/A   Scattered Clouds
6:15 PM 38.5 °F 31.6 °F 18.9 °F 45% 30.17 in 10.0 mi North 10.4 mph - N/A   Clear
6:35 PM 38.7 °F 33.6 °F 19.0 °F 45% 30.16 in 10.0 mi North 6.9 mph - N/A   Scattered Clouds
6:55 PM 38.8 °F 32.1 °F 19.2 °F 45% 30.16 in 10.0 mi North 10.4 mph - N/A   Scattered Clouds
7:15 PM 38.8 °F 32.6 °F 20.3 °F 47% 30.17 in 10.0 mi North 9.2 mph - N/A   Clear
7:35 PM 37.9 °F 32.1 °F 21.4 °F 51% 30.16 in 10.0 mi NNE 8.1 mph - N/A   Clear
7:55 PM 36.7 °F 31.2 °F 21.9 °F 55% 30.17 in 10.0 mi NNE 6.9 mph - N/A   Clear
8:15 PM 35.1 °F 30.1 °F 23.4 °F 62% 30.17 in 10.0 mi NNE 5.8 mph - N/A   Clear
8:35 PM 33.6 °F 27.5 °F 23.5 °F 67% 30.17 in 10.0 mi NE 6.9 mph - N/A   Clear
8:55 PM 32.0 °F 26.4 °F 23.4 °F 70% 30.17 in 10.0 mi NNE 5.8 mph - N/A   Clear
9:15 PM 32.0 °F 26.4 °F 23.9 °F 72% 30.18 in 10.0 mi NE 5.8 mph - N/A   Clear
9:35 PM 31.5 °F 28.1 °F 23.9 °F 74% 30.19 in 10.0 mi NE 3.5 mph - N/A   Clear
9:55 PM 32.0 °F 28.7 °F 24.6 °F 74% 30.20 in 10.0 mi ENE 3.5 mph - N/A   Clear
10:15 PM 31.1 °F - 23.9 °F 75% 30.20 in 10.0 mi Calm Calm - N/A   Clear
10:35 PM 30.7 °F - 23.9 °F 76% 30.20 in 10.0 mi Calm Calm - N/A   Clear
10:55 PM 30.7 °F 27.3 °F 24.4 °F 77% 30.21 in 10.0 mi ESE 3.5 mph - N/A   Clear
11:15 PM 30.0 °F 25.2 °F 23.9 °F 78% 30.21 in 10.0 mi SE 4.6 mph - N/A   Clear
11:35 PM 29.3 °F 25.6 °F 24.8 °F 83% 30.22 in 10.0 mi South 3.5 mph - N/A   Clear
11:55 PM 30.2 °F 26.7 °F 23.9 °F 77% 30.21 in 10.0 mi South 3.5 mph - N/A   Clear